Location: ShareBrained
(45.5589°N, 122.6491°W)
Time: 08:31:12
(UTC-08:00)

NOAA 19 - Pass Details

Date: 17 January 2020
Orbit: 840 x 861 km, 99.2° (Epoch: 25 February)

Event Time Altitude Azimuth Distance (km) Brightness Sun altitude
Rises 04:28:45 0° 34° (NE) 3,409 8.8 -34.1°
Reaches altitude 10° 04:32:46 10° 63° (ENE) 2,465 8.3 -33.4°
Maximum altitude 04:34:58 12° 88° (E) 2,292 8.2 -33.0°
Drops below altitude 10° 04:37:09 10° 112° (ESE) 2,456 8.3 -32.6°
Sets 04:41:07 0° 141° (SE) 3,384 8.8 -31.9°
